Wind_Speed
10 10 11 11 11 12 12 12 10 9 8 8 7 6 6 6 5 7 8 9 11 12 12 13 14 14 15 14 15 16 16 16 15
11 10 10 10 12 12 12 10 8 7 7 6 6 5 5 5 6 7 8 10 11 12 13 14 14 14 14 14 14 15 15 15 15
11 10 10 8 9 9 7 6 6 4 5 5 5 6 7 7 8 9 10 11 12 13 13 14 15 14 13 13 13 14 15 14 14
12 11 9 8 8 8 8 6 5 5 5 5 6 7 8 9 10 11 13 13 14 14 14 15 14 12 12 12 12 13 13 13 13
13 12 11 11 10 11 10 9 9 9 9 9 9 10 10 12 14 14 14 15 15 13 13 13 12 12 12 12 12 12 13 13 13
14 15 15 13 13 14 12 12 12 12 13 11 12 12 13 13 14 15 14 15 15 14 13 14 13 12 13 13 13 12 11 12 13
17 17 18 17 15 15 14 15 15 16 16 15 15 15 16 16 15 15 15 16 16 15 14 14 15 15 14 13 12 10 10 12 13
18 18 21 19 18 17 17 18 18 18 18 18 18 18 19 18 17 17 17 17 17 16 16 17 18 17 15 13 12 13 14 15 16
21 21 23 21 21 20 19 19 20 19 19 20 22 21 20 20 20 19 19 19 18 19 17 18 17 15 15 15 17 17 19 19 19
23 23 24 23 23 22 22 22 22 23 23 24 25 24 22 21 21 20 21 20 21 20 18 18 18 19 19 20 22 23 24 24 23
24 25 26 25 24 24 24 25 26 26 26 26 26 25 25 23 23 22 22 21 21 22 20 20 21 23 25 26 28 30 31 29 28
26 27 26 27 26 27 28 27 27 26 26 26 27 27 26 25 25 25 25 23 24 26 25 25 27 28 29 30 33 33 33 32 33
29 29 29 28 29 30 30 28 27 28 28 29 29 27 27 27 28 27 28 27 29 29 31 30 30 31 32 34 36 37 36 36 36
30 31 31 31 31 32 31 31 32 32 32 32 30 29 29 29 30 29 28 30 30 31 31 32 34 35 38 39 38 36 38 39 41
35 36 35 35 34 33 33 33 32 33 33 33 30 30 30 28 29 29 30 30 32 33 35 37 38 39 39 39 38 41 42 43 44
41 38 37 37 34 34 34 34 36 35 36 36 36 34 33 32 31 34 32 34 36 38 38 40 40 42 43 42 42 44 45 48 50
42 38 38 38 39 39 38 38 38 37 37 37 38 37 36 36 38 38 38 39 39 39 37 39 41 40 41 45 48 51 54 54 53
46 39 42 41 41 43 38 42 41 40 39 40 42 41 42 42 43 42 42 39 38 38 39 42 44 46 47 50 52 52 53 54 55
41 40 42 44 40 40 40 45 44 50 48 47 45 41 41 40 42 39 39 40 41 43 44 46 48 52 54 54 54 54 54 55 58
47 45 45 43 47 46 40 48 41 43 39 44 42 42 37 37 37 36 40 41 47 49 50 53 55 58 57 55 56 56 59 62 63
Wind_Direction
289 298 290 278 279 280 273 268 264 263 262 264 260 254 258 265 278 289 298 306 312 316 318 320 322 324 325 326 327 332 340 344 351
291 294 301 294 287 283 284 275 266 249 252 252 252 249 251 263 278 285 291 299 303 305 308 311 313 314 313 315 317 321 327 331 340
288 292 299 306 296 289 280 276 271 257 244 251 254 263 268 275 277 282 286 288 290 295 298 302 303 304 304 305 306 312 319 324 329
280 280 287 293 289 282 274 271 271 272 272 272 273 273 275 275 274 280 279 278 281 285 292 298 299 298 300 301 302 306 310 315 321
272 275 271 273 272 268 264 262 261 261 259 264 267 269 270 272 277 276 276 282 284 285 289 289 290 295 302 303 305 310 314 314 314
270 273 270 266 263 260 258 259 260 265 267 267 269 269 270 270 274 276 279 283 284 284 289 293 295 298 300 301 302 303 304 306 310
265 270 270 265 261 259 259 263 268 269 270 270 266 269 271 268 272 274 276 277 279 283 289 290 290 289 289 290 289 288 296 301 304
262 263 265 260 258 258 259 263 266 268 271 274 276 274 272 271 270 271 272 272 274 275 280 282 283 285 285 282 283 290 295 297 299
260 263 265 263 263 261 262 265 267 268 270 273 272 271 268 267 268 267 267 268 269 274 274 276 276 275 275 278 280 285 286 286 288
263 265 266 265 262 263 265 266 268 270 271 271 272 271 272 270 268 269 271 273 271 268 265 268 270 271 271 273 277 278 281 286 287
261 264 265 265 265 266 267 269 270 272 273 274 274 274 273 270 270 268 265 265 266 267 267 266 268 272 274 274 278 280 281 284 285
261 261 264 265 267 269 269 270 272 272 274 275 274 274 273 272 270 270 271 266 269 268 264 266 270 272 274 275 277 280 282 284 285
258 263 265 269 272 273 273 273 275 275 273 274 273 272 270 270 269 268 270 269 267 266 268 270 268 270 273 277 279 280 284 284 285
259 265 266 267 271 274 276 277 274 275 275 272 268 265 266 265 266 264 265 267 269 268 268 270 274 276 276 278 280 284 282 283 283
257 261 264 268 271 276 279 278 274 276 273 270 267 263 264 261 263 265 264 265 268 270 273 275 273 273 276 277 280 281 281 282 283
257 259 266 270 273 280 276 279 280 279 271 268 268 267 263 262 262 262 264 267 269 269 271 272 273 276 278 278 280 279 280 280 278
258 260 268 271 277 281 277 281 280 276 274 271 270 268 264 263 261 262 269 268 267 270 270 271 272 272 274 277 279 281 281 283 284
260 260 266 272 276 281 272 279 278 274 272 276 272 269 265 263 265 263 266 266 266 269 271 274 279 280 282 282 280 284 285 286 285
266 265 264 276 278 277 273 277 281 270 285 273 268 268 273 274 266 264 263 264 268 270 278 282 281 281 281 280 282 284 284 283 283
267 265 272 263 268 268 278 276 276 271 274 271 270 271 273 272 267 264 263 272 277 281 282 280 281 282 283 281 282 282 282 282 282
Height
5874 5874 5874 5874 5875 5875 5875 5875 5875 5875 5874 5874 5874 5874 5875 5876 5875 5875 5876 5876 5875 5874 5873 5872 5872 5871 5870 5869 5867 5866 5865 5865 5864
5872 5872 5872 5872 5873 5873 5873 5873 5873 5873 5873 5873 5873 5874 5873 5874 5874 5874 5874 5874 5874 5873 5872 5871 5871 5870 5869 5868 5868 5866 5865 5865 5864
5870 5870 5870 5870 5871 5871 5872 5872 5872 5871 5872 5872 5872 5873 5872 5872 5873 5872 5872 5871 5871 5871 5870 5870 5869 5869 5868 5868 5866 5866 5865 5865 5864
5867 5869 5868 5869 5869 5870 5871 5871 5871 5871 5871 5870 5871 5871 5871 5871 5871 5870 5870 5869 5869 5869 5868 5868 5868 5868 5867 5867 5867 5866 5865 5865 5864
5865 5866 5867 5867 5867 5868 5869 5869 5869 5869 5869 5868 5869 5869 5869 5869 5868 5868 5868 5868 5867 5867 5866 5866 5865 5865 5866 5865 5865 5865 5864 5864 5864
5862 5864 5865 5865 5865 5866 5865 5867 5867 5867 5867 5865 5866 5865 5866 5866 5866 5866 5865 5866 5866 5865 5865 5865 5864 5864 5864 5864 5864 5863 5863 5863 5863
5860 5860 5861 5862 5861 5862 5863 5864 5864 5864 5864 5863 5862 5862 5862 5862 5862 5863 5862 5863 5862 5862 5862 5862 5862 5861 5861 5861 5861 5861 5861 5861 5861
5856 5857 5858 5858 5859 5859 5859 5859 5860 5861 5861 5860 5860 5858 5859 5859 5858 5859 5859 5859 5859 5858 5858 5858 5859 5859 5859 5859 5859 5859 5859 5858 5858
5852 5853 5854 5854 5855 5855 5855 5855 5856 5856 5856 5856 5856 5855 5854 5854 5854 5854 5855 5855 5854 5856 5855 5855 5855 5855 5855 5855 5855 5854 5855 5854 5854
5848 5849 5850 5850 5850 5851 5851 5851 5852 5851 5851 5851 5851 5851 5851 5851 5850 5850 5851 5851 5851 5851 5849 5850 5852 5852 5851 5851 5851 5850 5850 5850 5850
5843 5845 5846 5846 5846 5847 5847 5846 5846 5846 5846 5846 5846 5846 5846 5846 5848 5846 5845 5844 5846 5847 5846 5846 5847 5847 5847 5846 5846 5846 5845 5844 5845
5839 5840 5841 5842 5842 5842 5842 5841 5841 5841 5841 5841 5840 5840 5841 5842 5842 5842 5842 5840 5841 5842 5841 5841 5841 5840 5840 5839 5839 5840 5839 5839 5839
5834 5835 5837 5837 5837 5838 5838 5836 5836 5837 5836 5836 5835 5835 5835 5835 5836 5836 5837 5836 5835 5835 5836 5835 5833 5833 5833 5834 5833 5833 5833 5833 5832
5828 5830 5831 5832 5831 5832 5832 5832 5831 5832 5831 5830 5829 5828 5829 5829 5828 5829 5828 5830 5830 5830 5828 5828 5828 5828 5827 5826 5826 5828 5827 5827 5827
5822 5824 5824 5825 5825 5826 5826 5825 5825 5825 5825 5825 5824 5822 5822 5821 5822 5823 5821 5821 5822 5821 5822 5822 5820 5819 5819 5818 5818 5818 5818 5817 5817
5816 5817 5818 5818 5818 5819 5819 5819 5819 5819 5818 5818 5817 5817 5816 5817 5816 5816 5814 5814 5815 5813 5812 5813 5812 5811 5811 5810 5810 5808 5808 5808 5806
5809 5810 5811 5811 5812 5813 5813 5813 5812 5812 5811 5811 5811 5810 5809 5809 5807 5807 5808 5807 5805 5806 5804 5804 5802 5800 5801 5798 5798 5797 5796 5795 5795
5800 5801 5802 5803 5803 5804 5804 5805 5804 5804 5803 5802 5803 5801 5800 5800 5799 5799 5798 5798 5798 5797 5795 5794 5794 5791 5789 5788 5786 5785 5783 5783 5781
5792 5793 5793 5794 5795 5795 5795 5796 5795 5793 5793 5793 5792 5791 5790 5790 5791 5790 5790 5789 5788 5786 5785 5784 5783 5782 5779 5775 5774 5772 5770 5768 5768
5783 5784 5784 5785 5785 5786 5785 5786 5784 5783 5781 5782 5783 5782 5780 5780 5781 5780 5781 5780 5776 5775 5772 5771 5768 5766 5766 5762 5759 5759 5757 5755 5753